CZ-6A DEB

Satellite information

Favourite Embed

Satellite Type and Status

DEBRISIN ORBIT

Key statistics

Satellite CZ-6A DEB at a glance.

Uptime

968

Days in orbit

Revolutions

≈ 14.3

Per day

Orbit

SSO

Sun Synchronous Orbit

Inclination

98.8

Latest

Satellite identification and parameters

Extended collection of information and parameters for CZ-6A DEB.

Object identification

Identified? True

Debris? True

Object name: CZ-6A DEB

International designator: 2022-151NG

Object number (NORAD): 54606

Object ID (CCSDS): 54606

Country: PEOPLES REPUBLIC OF CHINA (PRC)

Current information (Y/N): Y

RCS size: SMALL

Orbital parameters

Period: 100.731 minutes

Inclination: 98.8101 deg

SMA: 7171.361 km

Apoapsis: 835.377 km

Periapsis: 751.075 km

RAAN: 202.1082 deg

Eccentricy: 0.0058777

Argument of periapsis: 247.44 deg

Mean anomaly: 112.0555 deg

Mean motion: 14.29553519 rev/day

Mean motion (dot): 0.00004445 rev/day2

B* drag term: 0.0017226 1/REarth

Two-line elements (TLE)

Creation date: July 5, 2025, 10:56 p.m.

Reference frame: TEME

Reference center: EARTH

Epoch: July 5, 2025, 1:54 p.m. UTC

TLE line 0: 0 CZ-6A DEB

TLE line 1: 1 54606U 22151NG 25186.57965928 .00004445 00000-0 17226-2 0 9992

TLE line 2: 2 54606 98.8101 202.1082 0058777 247.4400 112.0555 14.29553519136328

Live tracking on map

Real-time ground track for satellite CZ-6A DEB.

In-orbit conjunctions

A list of the most updated potential collisions computed for object CZ-6A DEB.

Target Orbit TCA Probability of collision Miss distance Type
COSMOS 1066 LEO 2025-06-21 06:01:42 0.0005088106 719.0 (m) PAYLOAD
CZ-4C R/B SSO 2025-05-14 08:55:15 0.0001387097 725.0 (m) ROCKET BODY
METEOR 2-8 DEB LEO 2025-03-09 19:00:52 0.0001190367 162.0 (m) DEBRIS
COSMOS 1023 LEO 2025-02-28 05:35:34 0.0001613839 248.0 (m) PAYLOAD
COSMOS 2263 LEO 2025-01-29 14:53:51 0.0001320152 492.0 (m) PAYLOAD

Associated space launch

Chinese satellite reported for atmospheric/ocean/environmental/spatial parameter research purposes, details TBD.

CZ-6A DEB was lifted into orbit during the mission ‘Long March 6A | Yunhai 3’, on board a Long March 6A space rocket.

The launch took place on Nov. 11, 2022, 10:52 p.m. from Launch Complex 9A.

For more information about the launch, click the button.

Launch to space Long March 6A | Yunhai 3
Long March 6A | Yunhai 3

Agency: N/A

Status: Launch Successful

Launch date: Nov. 11, 2022, 10:52 p.m. UTC

Rocket: Long March 6A

Launch pad: Launch Complex 9A

Location: Taiyuan Satellite Launch Center, People's Republic of China

...

Latest news about this satellite

There are no fresh news available about this satellite. Check back as we update our databases every day.


Newsletter sign-up

Weekly statistics, charts and insights to help you stay on top of the space industry.